Flag for Germany Weather past 2 weeks in Schwedt/Oder, Brandenburg, Germany

Now
52 °F

Clear.


Feels Like: 52 °F
Forecast: 50 / 69 °F
Wind: 2 mph from North

Location: Szczecin Airport

Current Time: Aug 21, 2014 at 12:50:48 AM

Latest Report: Aug 21, 2014 at 12:30 AM


Visibility: 10 mi

Pressure: 29.95 "Hg

Humidity: 82%

Dew point: 46 °F

Location of Schwedt/OderLocation

Historic Weather in Schwedt/Oder — Graph

°F

Schwedt/Oder temperature yesterday

Maximum temperature yesterday: 64 °F (at 4:00 PM)
Minimum temperature yesterday: 52 °F (at 12:00 AM)
Average temperature yesterday: 56 °F

Past Weeks' High & Low Weather Summary

 TemperatureHumidityPressure
High88 °F (Aug 9, 2:00 PM)100% (Aug 6, 6:30 AM)30.04 "Hg (Aug 6, 6:30 AM)
Low52 °F (Aug 10, 5:00 AM)32% (Aug 7, 3:00 PM)29.53 "Hg (Aug 18, 6:00 PM)
Average64 °F74%29.83 "Hg
* Reported Midnight between Aug 5 and Aug 6 — Midnight between Aug 20 and Aug 21, Schwedt/Oder, Weather by CustomWeather, © 2014

Note: Actual official high and low records may vary slightly from our data, if they occured in-between our weather recording intervals... More about our weather records

Advertising

Schwedt/Oder weather history for previous 24 hours

 ConditionsComfort  
Time TempWeatherWind HumidityBarometerVisibility
12:00 AM
Aug 21
52 °FClear.3 mph82%29.95 "Hg10 mi
11:30 PM
Aug 20
54 °FClear.3 mph77%29.95 "Hg10 mi
11:00 PM54 °FClear.3 mph77%29.95 "Hg10 mi
10:30 PM55 °FClear.6 mph72%29.92 "Hg10 mi
10:00 PM55 °FClear.5 mph77%29.92 "Hg10 mi
9:30 PM55 °FClear.5 mph77%29.92 "Hg10 mi
9:00 PM57 °FSunny.6 mph72%29.92 "Hg10 mi
8:30 PM57 °FSunny.6 mph72%29.92 "Hg10 mi
8:00 PM57 °FSunny.7 mph72%29.92 "Hg10 mi
7:30 PM57 °FSprinkles. Partly sunny.6 mph72%29.92 "HgN/A
7:00 PM59 °FSprinkles. Partly sunny.17 mph63%29.92 "HgN/A
6:30 PM63 °FScattered clouds.13 mph56%29.89 "HgN/A
6:00 PM63 °FScattered clouds.9 mph56%29.89 "HgN/A
5:30 PM63 °FScattered clouds.9 mph56%29.89 "HgN/A
5:00 PM61 °FPartly sunny.9 mph59%29.89 "HgN/A
4:30 PM63 °FScattered clouds.13 mph56%29.89 "HgN/A
4:00 PM64 °FScattered clouds.15 mph52%29.89 "HgN/A
3:30 PM63 °FPartly sunny.15 mph56%29.89 "HgN/A
3:00 PM63 °FPartly sunny.14 mph59%29.89 "HgN/A
2:30 PM61 °FPartly sunny.14 mph63%29.89 "HgN/A
2:00 PM61 °FPartly sunny.10 mph63%29.89 "HgN/A
1:30 PM61 °FPartly sunny.15 mph63%29.89 "HgN/A
1:00 PM59 °FPartly sunny.15 mph68%29.89 "HgN/A
12:30 PM59 °FBroken clouds.13 mph68%29.89 "HgN/A
11:00 AM57 °FBroken clouds.12 mph72%29.86 "HgN/A
10:30 AM55 °FBroken clouds.13 mph77%29.86 "HgN/A
10:00 AM55 °FBroken clouds.10 mph77%29.86 "HgN/A
9:30 AM54 °FBroken clouds.10 mph82%29.83 "HgN/A
9:00 AM54 °FBroken clouds.12 mph82%29.83 "HgN/A
8:30 AM52 °FBroken clouds.12 mph88%29.83 "HgN/A
8:00 AM52 °FBroken clouds.9 mph88%29.80 "HgN/A
7:30 AM52 °FBroken clouds.9 mph88%29.80 "HgN/A
7:00 AM52 °FPartly sunny.9 mph82%29.80 "HgN/A
6:30 AM52 °FPassing clouds.9 mph82%29.80 "HgN/A
6:00 AM52 °FPassing clouds.10 mph82%29.80 "HgN/A
5:30 AM52 °FPartly cloudy.9 mph88%29.80 "HgN/A
5:00 AM52 °FPartly cloudy.10 mph88%29.77 "HgN/A
4:30 AM52 °FPartly cloudy.9 mph94%29.77 "HgN/A
4:00 AM52 °FPassing clouds.9 mph94%29.77 "HgN/A
3:30 AM52 °FPassing clouds.9 mph94%29.77 "HgN/A
3:00 AM52 °FPartly cloudy.8 mph94%29.77 "HgN/A
2:30 AM52 °FPartly cloudy.8 mph94%29.77 "HgN/A
2:00 AM52 °FPartly cloudy.8 mph94%29.77 "HgN/A
1:30 AM52 °FPartly cloudy.7 mph94%29.77 "HgN/A
1:00 AM52 °FPassing clouds.7 mph94%29.77 "HgN/A
12:30 AM52 °FPassing clouds.7 mph94%29.77 "HgN/A
12:00 AM52 °FLight rain. Clear.6 mph94%29.77 "HgN/A
Weather by CustomWeather, © 2014

See weather overviewHow to use our weather pages